Location: Saint-Palais-sur-Mer
(45.6429°N, 1.0859°W)
Time: 16:40:52
(UTC+01:00)

S-56A Canister/Altair - Pass Details

Date: 08 February 2026
Orbit: 633 x 2484 km, 38.9° (Epoch: 16 March)

Event Time Altitude Azimuth Distance (km) Brightness Sun altitude
Exits shadow 07:28:20 - 271° (W) 4,327 10.7 -9.0°
Reaches altitude 10° 07:28:35 10° 270° (W) 4,263 10.7 -8.9°
Maximum altitude 07:40:21 56° 197° (SSW) 2,639 10.2 -6.9°
Drops below altitude 10° 07:54:45 10° 126° (SE) 5,134 13.2 -4.5°
Sets 07:58:49 0° 122° (ESE) 6,102 14.1 -3.8°
